Details From SPZO - TENIENTE ALEJANDRO VELASCO ASTETE INTL
To SPTU - PADRE ALDAMIZ
Flight Number -
Tags decoded
Created
Modified
Stats Distance 173 nm / 320 km
Max Altitude 0 ft / 0 m
Waypoints 4
Social Downloads 4
Likes 0
Share VATSIM

Download

Looking for another format? Having issues loading an existing format? Contact us
Advertisement - Login to hide

Notes

Requested: SPZO URC CEMIL SPTU

Route

SPZO URC CEMIL SPTU

ID Type Via Altitude Latitude Longitude Leg Dist Tot Dist Heading (true) Name
O SPZO APT - 0 ft / 0 m -13.53572˚ -71.93878˚ - 0 nm - TENIENTE ALEJANDRO VELASCO ASTETE INTL
URC VOR - 0 ft / 0 m -13.64944˚ -71.58639˚ 21 nm 21 nm 108° / 108° URCOS VOR-DME
CEMIL FIX - 0 ft / 0 m -13.23972˚ -70.64972˚ 59 nm 81 nm 66° / 66° -
O SPTU APT - 0 ft / 0 m -12.61310˚ -69.22818˚ 91 nm 172 nm 66° / 66° PADRE ALDAMIZ

Altitude Profile

Advertisement - Login to hide

Weather


0- 5 10 15 20 25 30 35+ Temperature / ° C

Clouds and Precipitation
Forecast for 2018-05-25 18:00 UTC. Updated a minute ago

Ground ~20,000 ft ~40,000 ft Winds

SPZO

Details ICAO SPZO (CUZ)
Name TENIENTE ALEJANDRO VELASCO ASTETE INTL
Region Peru
Timezone America/Lima (UTC-5.0)
Stats Elevation 10,860 ft / 3,310 m (AMSL)
Location -13.535722° -71.938780°
Runways 1
Magnetic Variation 5.636° W

METAR

SPZO 251700Z 35005KT 250V050 9999 SCT050 19/M04 Q1033 NOSIG RMK BIRD HAZARD RWY 28 PP000

Decode

TAF

TAF SPZO 251110Z 2512/2612 VRB03KT 9999 FEW050 TX22/2519Z TN01/2611Z BECMG 2516/2518 29008KT FEW043 SCT100 TEMPO 2518/2521 FEW040TCU SCT080 FM262300 VRB03KT 9999 FEW050

Decode

Departure Runways

ID Width Length Bearing (true) Bearing (mag) Surface Threshold Offset Overrun Length
10 148 ft / 45 m 11,135 ft / 3,394 m 95.97° 101.61° Asphalt 0 ft / 0 m 215 ft / 66 m
28 148 ft / 45 m 11,135 ft / 3,394 m 275.96° 281.60° Asphalt 0 ft / 0 m 200 ft / 61 m

SPTU

Details ICAO SPTU (PEM)
Name PADRE ALDAMIZ
Region Peru
Timezone America/Lima (UTC-5.0)
Stats Elevation 659 ft / 201 m (AMSL)
Location -12.613103° -69.228182°
Runways 1
Magnetic Variation 8.125° W

METAR

SPTU 251700Z /////KT CAVOK 27/19 Q1016 RMK WIND RWY19 12005KT BIRD HAZARD RWY 01/19 PP000

Decode

TAF

SPTU 251110Z 2512/2612 VRB02KT CAVOK TX33/2519Z TN18/2611 FM251700 33010KT 9999 SCT020 TEMPO 2517/2520 33010KT FEW012TCU SCT020 FM260000 00000KT 9999 FEW010

Decode

Destination Runways

ID Width Length Bearing (true) Bearing (mag) Surface Threshold Offset Overrun Length
01 148 ft / 45 m 11,549 ft / 3,520 m 2.11° 10.23° Concrete 0 ft / 0 m 197 ft / 60 m
19 148 ft / 45 m 11,549 ft / 3,520 m 182.11° 190.23° Concrete 0 ft / 0 m 197 ft / 60 m

Approach Navaids

Runway Type Ident Frequency Range Bearing (true) Bearing (mag) Slope Elevation
01 Localiser IPJA 109.70 MHz 18 nm / 33 km 0.94° 9.07° - 659 ft / 201 m (AMSL)
01 Glidescope IPJA 109.70 MHz 10 nm / 19 km 2.11° 10.23° 3.00° 659 ft / 201 m (AMSL)
01 DME IPJA 109.70 MHz 18 nm / 33 km - - - 659 ft / 201 m (AMSL)

Popular Alternatives